Regional Weather Roundup
Issued by NWS

Home | Current Version | Previous Version | Text Only | Print | Product List | Glossary On
Versions: 1 2 3 4 5 6 7 8 9 10 11 12 13 14 15 16 17 18 19 20 21 22 23 24 25 26 27 28
000
ASUS45 KREV 290410
RWRNV
NEVADA REGIONAL WEATHER ROUNDUP
NATIONAL WEATHER SERVICE RENO NV
900 PM PDT SAT MAY 28 2016

NOTE: "FAIR" INDICATES FEW OR NO CLOUDS BELOW 12,000 FEET WITH NO
SIGNIFICANT WEATHER AND/OR OBSTRUCTIONS TO VISIBILITY.

NVZ001-003-004-290500-
WESTERN NEVADA

CITY           SKY/WX    TMP DP  RH WIND       PRES   REMARKS
RENO           MOCLDY    67  37  33 S10       30.00R
CARSON CITY    FAIR      61  39  44 CALM      30.04S
MINDEN         FAIR      55  46  71 NE5       30.04S
FALLON         MOCLDY    67  36  31 SW12      29.97R
LOVELOCK       PTCLDY    69  35  28 S9        29.95R
HAWTHORNE      CLEAR     66  36  32 CALM      30.01R
$$

NVZ002-CAZ072-073-290500-
NORTHERN AND CENTRAL SIERRA

CITY           SKY/WX    TMP DP  RH WIND       PRES   REMARKS
S. LAKE TAHOE  CLOUDY    56  38  50 CALM      30.08R
TRUCKEE        MOCLDY    55  37  50 SE5       30.08R
SQUAW VLY 8000 NOT AVBL
SUSANVILLE     CLEAR     63  43  48 W7        29.98R
MAMMOTH LAKES  CLOUDY    49  41  74 S5        30.20R
BRIDGEPORT     FAIR      46  38  73 CALM      30.13
$$

NVZ030-031-036-290500-
NORTHERN NEVADA

CITY           SKY/WX    TMP DP  RH WIND       PRES   REMARKS
ELKO           PTCLDY    61  42  49 NW3       30.04R
WINNEMUCCA     CLEAR     60  26  27 NE6       29.99R
WENDOVER       MOCLDY    64  39  39 N7        30.03F
$$

NVZ035-037-290500-
CENTRAL NEVADA

CITY           SKY/WX    TMP DP  RH WIND       PRES   REMARKS
ELY            CLOUDY    54  40  59 VRB3      30.12S
EUREKA           N/A     53  45  74 W8        30.11
$$

NVZ013-014-290500-
SOUTH CENTRAL NEVADA

CITY           SKY/WX    TMP DP  RH WIND       PRES   REMARKS
TONOPAH        MOCLDY    61  38  42 N8        30.06R
$$

NVZ017-020-022-290500-
SOUTHERN NEVADA

CITY           SKY/WX    TMP DP  RH WIND       PRES   REMARKS
LAS VEGAS      PTCLDY    85  22  10 SW6       29.78R
N. LAS VEGAS   PTCLDY    85  25  11 S6        29.81R
NELLIS AFB     PTCLDY    83  27  12 SE2       29.79R
HENDERSON      CLEAR     81  27  14 SW8       29.85R
MERCURY        PTCLDY    76  22  13 SW3       29.88R
$$




USA.gov is the U.S. government's official web portal to all federal, state and local government web resources and services.